Weather History for Erie, CO

Change the Weather History Date:

Tuesday, August 6, 2013

  Actual Average (KBJC) Record (KBJC)
Temperature  
Mean Temperature 72 °F -  
Max Temperature 89 °F 84 °F 98 °F (2003)
Min Temperature 55 °F 59 °F 41 °F (1986)
Cooling Degree Days 7    
Growing Degree Days 22 (Base 50)    
Moisture  
Dew Point 48 °F    
Average Humidity 49    
Maximum Humidity 91    
Minimum Humidity 16    
Precipitation  
Precipitation 0.00 in - - ()
Sea Level Pressure  
Sea Level Pressure 30.05 in    
Wind  
Wind Speed 5 mph (SSW)    
Max Wind Speed 29 mph    
Max Gust Speed 37 mph    
Visibility 10 miles    
Events Rain    
Averages and records for this station are not official NWS values.
T = Trace of Precipitation, MM = Missing Value Source: NWS Daily Summary

Daily Weather History Graph

Daily Weather History Graph

Search for Another Location

Airport:

Trip Planner

Search our weather history database for the weather conditions in past years. The results will help you decide how hot, cold, wet, or windy it might be!

Date:

Astronomy

Aug. 06, 2013 Rise Set
Actual Time 6:03 AM MDT 8:07 PM MDT
Civil Twilight 5:33 AM MDT 8:37 PM MDT
Nautical Twilight 4:57 AM MDT 9:13 PM MDT
Astronomical Twilight 4:17 AM MDT 9:53 PM MDT
Moon 5:57 AM MDT (8/6) 7:44 PM MDT (8/6)
Length of Visible Light 15h 03m
Length of Day
14h 04m
Waning Crescent, 0% of the Moon is Illuminated
Aug 6
Waning Crescent
Aug 6
New
Aug 14
First Quarter
Aug 20
Full
Aug 28
Last Quarter

Hourly Weather History & Observations

Time (MDT) Temp. Dew Point Humidity Pressure Visibility Wind Dir Wind Speed Gust Speed Precip Events Conditions
12:15 AM 65.3 °F 54.5 °F 68% 30.06 in 10.0 mi SSW 8.1 mph - N/A   Clear
12:35 AM 67.8 °F 53.4 °F 60% 30.06 in 10.0 mi South 3.5 mph - N/A   Clear
12:55 AM 67.8 °F 53.6 °F 60% 30.06 in 10.0 mi SW 4.6 mph - N/A   Clear
1:15 AM 66.9 °F 53.2 °F 61% 30.05 in 10.0 mi WSW 3.5 mph - N/A   Clear
1:35 AM 66.6 °F 53.1 °F 62% 30.04 in 10.0 mi SSW 3.5 mph - N/A   Clear
1:55 AM 65.5 °F 53.1 °F 64% 30.03 in 10.0 mi SSW 6.9 mph - N/A   Clear
2:15 AM 63.9 °F 53.2 °F 68% 30.03 in 10.0 mi SSE 4.6 mph - N/A   Clear
2:35 AM 64.4 °F 53.1 °F 67% 30.02 in 10.0 mi Calm Calm - N/A   Clear
2:55 AM 60.8 °F 53.2 °F 76% 30.02 in 10.0 mi Calm Calm - N/A   Clear
3:15 AM 61.3 °F 53.1 °F 74% 30.03 in 10.0 mi NW 4.6 mph - N/A   Clear
3:35 AM 59.2 °F 53.8 °F 82% 30.02 in 10.0 mi Calm Calm - N/A   Clear
3:55 AM 59.2 °F 53.8 °F 82% 30.02 in 10.0 mi Calm Calm - N/A   Clear
4:15 AM 56.8 °F 53.2 °F 88% 30.03 in 10.0 mi Calm Calm - N/A   Clear
4:35 AM 57.9 °F 53.2 °F 84% 30.03 in 10.0 mi Calm Calm - N/A   Clear
4:55 AM 57.6 °F 53.2 °F 85% 30.03 in 10.0 mi Calm Calm - N/A   Clear
5:15 AM 55.8 °F 52.7 °F 89% 30.03 in 10.0 mi Calm Calm - N/A   Clear
5:35 AM 55.8 °F 53.1 °F 91% 30.03 in 10.0 mi SW 4.6 mph - N/A   Clear
5:55 AM 55.9 °F 52.9 °F 89% 30.03 in 10.0 mi Calm Calm - N/A   Clear
6:15 AM 56.7 °F 53.1 °F 88% 30.04 in 10.0 mi Calm Calm - N/A   Clear
6:35 AM 56.5 °F 53.6 °F 90% 30.04 in 10.0 mi SSW 3.5 mph - N/A   Clear
6:55 AM 57.6 °F 54.0 °F 88% 30.04 in 10.0 mi Calm Calm - N/A   Clear
7:15 AM 59.5 °F 55.0 °F 85% 30.05 in 10.0 mi Calm Calm - N/A   Clear
7:35 AM 61.2 °F 56.8 °F 86% 30.05 in 10.0 mi Calm Calm - N/A   Clear
7:55 AM 62.2 °F 57.4 °F 84% 30.05 in 10.0 mi Calm Calm - N/A   Clear
8:15 AM 64.0 °F 56.7 °F 77% 30.05 in 10.0 mi Calm Calm - N/A   Clear
8:35 AM 67.3 °F 56.7 °F 69% 30.06 in 10.0 mi Calm Calm - N/A   Clear
8:55 AM 72.3 °F 51.3 °F 47% 30.05 in 10.0 mi Calm Calm - N/A   Clear
9:15 AM 73.8 °F 50.9 °F 45% 30.06 in 10.0 mi East 3.5 mph - N/A   Clear
9:35 AM 75.0 °F 51.3 °F 43% 30.07 in 10.0 mi East 8.1 mph - N/A   Clear
9:54 AM 77.2 °F 50.2 °F 39% 30.06 in 10.0 mi SE 5.8 mph - N/A   Clear
10:55 AM 81.9 °F 46.9 °F 29% 30.07 in - East 5.8 mph - N/A   Unknown
11:15 AM 82.9 °F 46.9 °F 28% 30.07 in 10.0 mi NE 9.2 mph - N/A   Clear
11:35 AM 84.2 °F 43.2 °F 24% 30.07 in 10.0 mi ENE 5.8 mph - N/A   Clear
11:55 AM 84.6 °F 46.9 °F 27% 30.07 in 10.0 mi ENE 4.6 mph - N/A   Clear
12:15 PM 85.5 °F 46.2 °F 25% 30.07 in 10.0 mi ENE 5.8 mph 9.2 mph N/A   Clear
12:35 PM 85.8 °F 49.6 °F 29% 30.06 in 10.0 mi ENE 4.6 mph - N/A   Clear
12:55 PM 83.3 °F 46.4 °F 27% 30.05 in 10.0 mi ENE 9.2 mph - N/A   Clear
1:15 PM 85.1 °F 43.9 °F 24% 30.05 in 10.0 mi East 5.8 mph - N/A   Clear
1:35 PM 87.6 °F 45.0 °F 23% 30.05 in 10.0 mi East 8.1 mph - N/A   Clear
1:55 PM 85.1 °F 43.3 °F 23% 30.04 in 10.0 mi East 8.1 mph - N/A   Clear
2:15 PM 85.1 °F 41.7 °F 22% 30.03 in 10.0 mi East 6.9 mph - N/A   Clear
2:35 PM 89.4 °F 37.8 °F 16% 30.03 in 10.0 mi East 5.8 mph - N/A   Clear
2:55 PM 86.7 °F 38.5 °F 18% 30.03 in 10.0 mi East 9.2 mph - N/A   Clear
3:15 PM 86.2 °F 38.5 °F 18% 30.03 in 10.0 mi NNE 4.6 mph - N/A   Scattered Clouds
3:35 PM 79.2 °F 43.5 °F 28% 30.06 in 10.0 mi NNW 15.0 mph 23.0 mph N/A Rain Light Rain
3:55 PM 79.0 °F 41.4 °F 26% 30.08 in 10.0 mi West 6.9 mph - N/A   Overcast
4:15 PM 78.8 °F 41.2 °F 26% 30.08 in 10.0 mi West 28.8 mph 36.8 mph N/A Rain Light Rain
4:35 PM 75.9 °F 45.7 °F 34% 30.07 in 10.0 mi SW 21.9 mph 28.8 mph N/A Rain Light Rain
4:55 PM 72.1 °F 48.9 °F 44% 30.07 in 10.0 mi SW 17.3 mph 26.5 mph N/A   Scattered Clouds
5:15 PM 73.9 °F 46.6 °F 38% 30.08 in 10.0 mi SW 16.1 mph 23.0 mph N/A   Scattered Clouds
5:35 PM 75.6 °F 44.8 °F 33% 30.08 in 10.0 mi WSW 11.5 mph 21.9 mph N/A   Clear
5:55 PM 75.0 °F 46.4 °F 36% 30.08 in 10.0 mi SW 13.8 mph 23.0 mph N/A   Clear
6:15 PM 76.5 °F 44.8 °F 32% 30.08 in 10.0 mi SW 10.4 mph 20.7 mph N/A   Clear
6:35 PM 76.5 °F 42.8 °F 30% 30.08 in 10.0 mi SSW 13.8 mph 19.6 mph N/A   Scattered Clouds
6:55 PM 75.9 °F 43.5 °F 31% 30.07 in 10.0 mi South 13.8 mph 18.4 mph N/A   Scattered Clouds
7:15 PM 75.7 °F 41.9 °F 30% 30.07 in 10.0 mi SW 15.0 mph 25.3 mph N/A   Clear
7:35 PM 76.1 °F 41.0 °F 28% 30.07 in 10.0 mi SSW 11.5 mph - N/A   Clear
7:55 PM 76.1 °F 41.0 °F 28% 30.06 in 10.0 mi SSW 12.7 mph 18.4 mph N/A   Scattered Clouds
8:15 PM 75.4 °F 42.1 °F 30% 30.06 in 10.0 mi SW 13.8 mph 19.6 mph N/A   Clear
8:35 PM 73.4 °F 42.8 °F 33% 30.06 in 10.0 mi SSW 11.5 mph 18.4 mph N/A   Clear
8:55 PM 72.7 °F 43.2 °F 35% 30.06 in 10.0 mi SSW 12.7 mph 18.4 mph N/A   Clear
9:15 PM 72.7 °F 42.4 °F 34% 30.06 in 10.0 mi SSW 13.8 mph 17.3 mph N/A   Clear
9:35 PM 72.3 °F 42.6 °F 34% 30.05 in 10.0 mi SSW 10.4 mph 19.6 mph N/A   Clear
9:55 PM 71.8 °F 43.7 °F 36% 30.05 in 10.0 mi SW 9.2 mph 17.3 mph N/A   Clear
10:15 PM 71.1 °F 44.6 °F 39% 30.06 in 10.0 mi SW 3.5 mph - N/A   Clear
10:35 PM 70.7 °F 45.7 °F 41% 30.06 in 10.0 mi SW 4.6 mph - N/A   Clear
10:55 PM 69.3 °F 46.2 °F 44% 30.06 in 10.0 mi SW 4.6 mph - N/A   Clear
11:15 PM 67.8 °F 46.4 °F 46% 30.05 in 10.0 mi Calm Calm - N/A   Clear
11:35 PM 67.5 °F 46.8 °F 47% 30.06 in 10.0 mi Calm Calm - N/A   Clear
11:55 PM 65.3 °F 48.0 °F 54% 30.08 in 10.0 mi Calm Calm - N/A   Clear